Flag for Germany Weather past 2 weeks in Lage, North Rhine-Westphalia, Germany

Now
57 °F

Overcast.


Feels Like: 55 °F
Forecast: 52 / 64 °F
Wind: 7 mph from Southwest

Location: Bad Lippspringe

Current Time: Jul 28, 2015 at 8:29:58 AM

Latest Report: Jul 28, 2015 at 8:00 AM


Visibility: 19 mi

Pressure: 29.66 "Hg

Humidity: 76%

Dew point: 49 °F

Location of LageLocation

Historic Weather in Lage — Graph

°F

Lage temperature yesterday

Maximum temperature yesterday: 65 °F (at 6:00 PM)
Minimum temperature yesterday: 55 °F (at 5:00 AM)
Average temperature yesterday: 60 °F

Past Weeks' High & Low Weather Summary

 TemperatureHumidityPressure
High88 °F (Jul 17, 4:00 PM)100% (Jul 16, 4:00 AM)30.13 "Hg (Jul 16, 4:00 AM)
Low51 °F (Jul 26, 7:00 AM)27% (Jul 17, 5:00 PM)29.50 "Hg (Jul 25, 11:00 AM)
Average66 °F78%29.91 "Hg
* Reported Jul 13 7:00 AM — Jul 28 7:00 AM, Lage, Weather by CustomWeather, © 2015

Note: Actual official high and low records may vary slightly from our data, if they occured in-between our weather recording intervals... More about our weather records

Advertising

Lage weather history for previous 24 hours

 ConditionsComfort  
Time TempWeatherWind HumidityBarometerVisibility
7:00 AM
Tue, Jul 28
56 °FOvercast.6 mph76%29.65 "Hg19 mi
6:00 AM56 °FOvercast.6 mph74%29.64 "Hg25 mi
5:00 AM56 °FOvercast.7 mph74%29.64 "Hg25 mi
4:00 AM57 °FPassing clouds.7 mph74%29.64 "Hg28 mi
3:00 AM58 °FOvercast.6 mph73%29.63 "Hg28 mi
2:00 AM59 °FPassing clouds.7 mph79%29.63 "Hg28 mi
1:00 AM60 °FPassing clouds.7 mph82%29.63 "Hg28 mi
11:00 PM
Mon, Jul 27
60 °FPassing clouds.5 mph87%29.62 "Hg19 mi
10:00 PM63 °FOvercast.3 mph78%29.60 "Hg22 mi
9:00 PM63 °FPassing clouds.3 mph78%29.59 "Hg31 mi
8:00 PM64 °FOvercast.5 mph78%29.59 "Hg25 mi
7:00 PM64 °FOvercast.6 mph82%29.59 "Hg17 mi
6:00 PM65 °FOvercast.8 mph73%29.57 "Hg25 mi
5:00 PM64 °FOvercast.9 mph77%29.57 "Hg19 mi
4:00 PM64 °FOvercast.7 mph78%29.57 "Hg22 mi
3:00 PM62 °FLight freezing rain. Overcast.6 mph87%29.57 "Hg16 mi
2:00 PM62 °FOvercast.7 mph93%29.56 "Hg13 mi
1:00 PM63 °FLight rain. Overcast.6 mph78%29.55 "Hg19 mi
12:00 PM61 °FOvercast.5 mph87%29.56 "Hg19 mi
11:00 AM62 °FOvercast.7 mph75%29.55 "Hg22 mi
10:00 AM62 °FOvercast.5 mph82%29.56 "Hg43 mi
9:00 AM59 °FLight rain. Overcast.2 mph90%29.55 "Hg19 mi
8:00 AM57 °FOvercast.2 mph88%29.56 "Hg17 mi
Weather by CustomWeather, © 2015

See weather overviewHow to use our weather pages